EW4650 Weather Reports


Display with metric or nautical units.
time (UTC)temp
F
wind
direction
speed
MPH
gust
MPH
rain 1hr
in
rain 24hr
in
rain mn
in
humidity
%
barometer
mb
20260509215005 88 157 2.0 8.0 0.00 0.00 0.00 53 1006.3
20260509214504 88 163 3.0 5.0 0.00 0.00 0.00 56 1006.4
20260509214004 87 175 2.0 12.0 0.00 0.00 0.00 56 1006.5
20260509213501 87 177 6.0 12.0 0.00 0.00 0.00 54 1006.5
20260509213141 88 121 5.0 12.0 0.00 0.00 0.00 54 1006.5
20260509212601 89 177 7.0 12.0 0.00 0.00 0.00 55 1006.7
20260509212101 88 175 8.0 12.0 0.00 0.00 0.00 55 1006.7
20260509211558 88 180 5.0 10.0 0.00 0.00 0.00 55 1006.8
20260509211057 88 227 4.0 8.0 0.00 0.00 0.00 54 1006.8
20260509210557 88 229 2.0 7.0 0.00 0.00 0.00 55 1006.9
20260509210105 87 207 3.0 9.0 0.00 0.00 0.00 56 1007.1
20260509205556 87 213 5.0 9.0 0.00 0.00 0.00 56 1007.1
20260509205053 87 165 4.0 8.0 0.00 0.00 0.00 58 1007.2
20260509204555 86 198 5.0 9.0 0.00 0.00 0.00 58 1007.3
20260509204052 85 210 6.0 9.0 0.00 0.00 0.00 59 1007.4
20260509203551 86 244 0.0 9.0 0.00 0.00 0.00 56 1007.5
20260509203050 87 265 4.0 6.0 0.00 0.00 0.00 56 1007.5
20260509202549 87 222 1.0 11.0 0.00 0.00 0.00 55 1007.7
20260509202049 86 225 8.0 11.0 0.00 0.00 0.00 58 1007.7
20260509201548 86 200 2.0 8.0 0.00 0.00 0.00 58 1007.7
20260509201047 85 209 4.0 8.0 0.00 0.00 0.00 59 1007.9
20260509200546 85 127 1.0 11.0 0.00 0.00 0.00 59 1007.9
20260509200046 84 225 7.0 11.0 0.00 0.00 0.00 61 1008.1
20260509195546 84 231 5.0 15.0 0.00 0.00 0.00 61 1008.1
20260509195048 85 229 10.0 15.0 0.00 0.00 0.00 59 1008.1
20260509194544 86 249 4.0 14.0 0.00 0.00 0.00 58 1008.3
20260509194044 86 242 6.0 14.0 0.00 0.00 0.00 60 1008.3
20260509193543 85 142 6.0 12.0 0.00 0.00 0.00 59 1008.3
20260509193044 85 204 5.0 14.0 0.00 0.00 0.00 60 1008.4
20260509192544 84 173 8.0 14.0 0.00 0.00 0.00 62 1008.4
20260509192040 84 300 4.0 12.0 0.00 0.00 0.00 62 1008.4
20260509191542 83 239 8.0 12.0 0.00 0.00 0.00 64 1008.5
20260509191043 83 173 4.0 11.0 0.00 0.00 0.00 63 1008.5
20260509190539 84 235 5.0 11.0 0.00 0.00 0.00 64 1008.6
20260509190040 84 245 8.0 13.0 0.00 0.00 0.00 65 1008.7
20260509185537 83 246 9.0 13.0 0.00 0.00 0.00 67 1008.8
20260509185037 83 200 1.0 12.0 0.00 0.00 0.00 67 1008.8
20260509184549 83 227 6.0 13.0 0.00 0.00 0.00 66 1008.9
20260509184036 83 215 5.0 16.0 0.00 0.00 0.00 67 1009.0
20260509183536 83 221 8.0 16.0 0.00 0.00 0.00 68 1009.1
20260509183035 83 189 5.0 10.0 0.00 0.00 0.00 69 1009.1
20260509182535 83 200 3.0 11.0 0.00 0.00 0.00 70 1009.2
20260509182034 83 211 7.0 11.0 0.00 0.00 0.00 69 1009.3
20260509181544 83 231 7.0 13.0 0.00 0.00 0.00 69 1009.4
20260509181033 83 221 11.0 14.0 0.00 0.00 0.00 69 1009.5
20260509180533 83 184 5.0 11.0 0.00 0.00 0.00 68 1009.5
20260509180032 82 172 5.0 11.0 0.00 0.00 0.00 73 1009.6
20260509175534 82 223 6.0 13.0 0.00 0.00 0.00 71 1009.7
20260509175029 82 148 2.0 14.0 0.00 0.00 0.00 71 1009.7
20260509174528 81 201 6.0 12.0 0.00 0.00 0.00 74 1009.7
20260509174026 81 191 6.0 12.0 0.00 0.00 0.00 75 1009.8
20260509173525 80 214 3.0 11.0 0.00 0.00 0.00 76 1009.8
20260509173023 79 182 4.0 11.0 0.00 0.00 0.00 77 1009.8
20260509172523 79 213 7.0 12.0 0.00 0.00 0.00 78 1009.9
20260509172023 79 236 9.0 14.0 0.00 0.00 0.00 77 1009.9
20260509171521 79 265 6.0 14.0 0.00 0.00 0.00 79 1009.9
20260509171020 78 211 6.0 14.0 0.00 0.00 0.00 79 1010.0
20260509170519 78 222 5.0 11.0 0.00 0.00 0.00 81 1009.9
20260509170019 78 229 5.0 15.0 0.00 0.00 0.00 83 1009.9
20260509165519 78 229 9.0 15.0 0.00 0.00 0.00 81 1009.8
20260509165020 78 182 8.0 17.0 0.00 0.00 0.00 82 1009.8
20260509164529 78 226 8.0 16.0 0.00 0.00 0.00 83 1009.8
20260509164018 77 184 9.0 15.0 0.00 0.00 0.00 84 1009.7
20260509163513 77 221 7.0 14.0 0.00 0.00 0.00 84 1009.9
20260509163016 77 199 8.0 14.0 0.00 0.00 0.00 88 1009.9
20260509162511 75 205 9.0 12.0 0.00 0.00 0.00 90 1010.0
20260509162015 75 200 6.0 10.0 0.00 0.00 0.00 90 1010.0
20260509161509 75 225 6.0 11.0 0.00 0.00 0.00 90 1010.0
20260509161008 74 209 6.0 13.0 0.00 0.00 0.00 93 1009.9
20260509160506 73 222 8.0 13.0 0.00 0.00 0.00 94 1009.9
20260509160006 72 214 6.0 10.0 0.00 0.00 0.00 96 1010.0
20260509155505 72 240 6.0 10.0 0.00 0.00 0.00 97 1010.1
20260509155004 73 192 5.0 11.0 0.00 0.00 0.00 99 1010.1
20260509154506 73 163 5.0 11.0 0.00 0.00 0.00 100 1010.1
20260509154003 72 197 4.0 8.0 0.00 0.00 0.00 100 1010.1
20260509153502 72 178 4.0 7.0 0.00 0.00 0.00 100 1010.1
20260509153106 71 220 4.0 8.0 0.00 0.00 0.00 100 1010.1
20260509152602 71 195 5.0 10.0 0.00 0.00 0.00 100 1010.2
20260509152058 70 188 5.0 9.0 0.00 0.00 0.00 100 1010.2
20260509151557 70 182 4.0 10.0 0.00 0.00 0.00 100 1010.2
20260509151055 70 194 6.0 10.0 0.00 0.00 0.00 100 1010.2
20260509150556 69 191 3.0 6.0 0.00 0.00 0.00 100 1010.2
20260509150055 69 232 1.0 2.0 0.00 0.00 0.00 100 1010.3
20260509145555 69 165 0.0 4.0 0.00 0.00 0.00 100 1010.2
20260509145056 69 245 2.0 4.0 0.00 0.00 0.00 100 1010.2
20260509144559 69 190 2.0 3.0 0.00 0.00 0.00 100 1010.2
20260509144053 69 92 1.0 2.0 0.00 0.00 0.00 100 1010.2
20260509143553 69 46 0.0 3.0 0.00 0.00 0.00 100 1010.3
20260509143055 69 18 1.0 4.0 0.00 0.00 0.00 100 1010.3
20260509142551 69 350 1.0 5.0 0.00 0.00 0.00 100 1010.3
20260509142051 68 9 3.0 5.0 0.00 0.00 0.00 100 1010.5
20260509141551 68 17 2.0 3.0 0.00 0.00 0.00 100 1010.5
20260509141054 68 73 1.0 5.0 0.00 0.00 0.00 100 1010.4
20260509140550 68 73 1.0 5.0 0.00 0.00 0.00 100 1010.2
20260509135550 68 76 1.0 5.0 0.00 0.01 0.00 100 1010.1
20260509135050 68 53 2.0 8.0 0.00 0.01 0.00 100 1010.1
20260509134549 68 74 5.0 8.0 0.00 0.01 0.00 100 1010.3
20260509134049 68 49 2.0 4.0 0.00 0.01 0.00 100 1010.2
20260509133547 68 95 1.0 6.0 0.00 0.01 0.00 100 1010.1
20260509133047 68 74 1.0 7.0 0.00 0.01 0.00 100 1010.2
20260509132547 68 65 4.0 9.0 0.00 0.01 0.00 100 1010.2
20260509132045 68 51 5.0 9.0 0.00 0.01 0.00 100 1010.3
20260509131546 68 55 4.0 7.0 0.00 0.01 0.00 100 1010.2
20260509131045 68 54 4.0 7.0 0.00 0.01 0.00 100 1010.1
20260509130545 68 59 3.0 5.0 0.00 0.01 0.00 100 1010.2
20260509130045 68 72 2.0 8.0 0.00 0.01 0.00 100 1010.4
20260509125544 68 80 4.0 7.0 0.00 0.01 0.00 100 1010.3
20260509125044 68 81 4.0 9.0 0.00 0.01 0.00 100 1010.2
20260509124541 67 59 4.0 12.0 0.00 0.01 0.00 100 1010.1
20260509124039 67 64 6.0 13.0 0.00 0.01 0.00 100 1010.1
20260509123541 67 46 9.0 12.0 0.00 0.01 0.00 100 1010.2
20260509123038 67 60 8.0 12.0 0.00 0.01 0.00 100 1010.2
20260509122538 67 48 8.0 11.0 0.00 0.01 0.00 100 1010.2
20260509122037 67 41 8.0 12.0 0.00 0.01 0.00 100 1010.3
20260509121540 67 57 7.0 12.0 0.00 0.01 0.00 100 1010.1
20260509121036 67 60 5.0 14.0 0.00 0.01 0.00 100 1010.1
20260509120536 68 33 10.0 14.0 0.00 0.01 0.00 100 1010.1
20260509120136 68 56 8.0 12.0 0.00 0.01 0.00 100 1010.1
20260509115535 68 43 8.0 11.0 0.00 0.01 0.00 100 1010.1
20260509115034 68 44 5.0 13.0 0.00 0.01 0.00 100 1010.1
20260509114534 68 30 9.0 13.0 0.00 0.01 0.00 100 1010.0
20260509114032 68 52 8.0 11.0 0.00 0.01 0.00 100 1009.9
20260509113531 68 24 6.0 9.0 0.00 0.01 0.00 100 1009.9
20260509113031 68 38 5.0 9.0 0.00 0.01 0.00 100 1009.6
20260509112530 68 32 4.0 6.0 0.00 0.01 0.00 100 1009.4
20260509112031 68 65 3.0 5.0 0.00 0.01 0.00 100 1009.3
20260509111531 67 85 3.0 6.0 0.00 0.01 0.00 100 1009.2
20260509111030 68 78 4.0 7.0 0.00 0.01 0.00 100 1009.2
20260509110531 68 75 5.0 9.0 0.00 0.01 0.00 100 1009.1
20260509110030 68 82 6.0 9.0 0.00 0.01 0.00 100 1009.0
20260509105531 68 67 4.0 6.0 0.00 0.01 0.00 100 1008.9
20260509105030 68 76 4.0 7.0 0.00 0.01 0.00 100 1008.9
20260509104533 68 73 4.0 7.0 0.00 0.01 0.00 100 1008.9
20260509104028 68 90 2.0 4.0 0.00 0.01 0.00 100 1008.9
20260509103528 68 102 2.0 6.0 0.00 0.01 0.00 100 1008.9
20260509103029 67 119 3.0 7.0 0.00 0.01 0.00 100 1008.9
20260509102528 67 116 2.0 6.0 0.00 0.01 0.00 100 1008.9
20260509102028 67 113 2.0 6.0 0.00 0.01 0.00 100 1008.9
20260509101537 67 105 2.0 5.0 0.00 0.01 0.00 100 1008.9
20260509101031 67 100 4.0 6.0 0.00 0.01 0.00 100 1008.7
20260509100527 67 82 3.0 8.0 0.00 0.01 0.00 100 1008.8
20260509100027 67 82 4.0 7.0 0.00 0.01 0.00 99 1008.6
20260509095528 67 64 5.0 7.0 0.00 0.01 0.00 99 1008.5
20260509095026 67 59 5.0 6.0 0.00 0.01 0.00 99 1008.5
20260509094529 67 69 4.0 6.0 0.00 0.01 0.00 99 1008.5
20260509094026 67 77 3.0 5.0 0.00 0.01 0.00 99 1008.4
20260509093526 67 53 3.0 4.0 0.00 0.01 0.00 99 1008.5
20260509093025 67 50 3.0 4.0 0.00 0.01 0.00 99 1008.5
20260509092525 67 52 2.0 4.0 0.00 0.01 0.00 99 1008.4
20260509092025 67 45 2.0 5.0 0.00 0.01 0.00 99 1008.4
20260509091529 67 28 3.0 5.0 0.00 0.01 0.00 99 1008.3
20260509091026 67 27 3.0 4.0 0.00 0.01 0.00 99 1008.3
20260509090524 67 17 0.0 4.0 0.00 0.01 0.00 99 1008.2
20260509090023 67 17 1.0 4.0 0.00 0.01 0.00 99 1008.3
20260509085523 67 16 3.0 4.0 0.00 0.01 0.00 99 1008.1
20260509085023 67 15 2.0 3.0 0.00 0.01 0.00 99 1008.1
20260509084528 67 38 1.0 2.0 0.00 0.01 0.00 99 1008.2
20260509084021 67 138 1.0 2.0 0.00 0.01 0.00 99 1008.4
20260509083519 67 138 0.0 2.0 0.00 0.01 0.00 99 1008.6
20260509083019 67 138 0.0 2.0 0.00 0.01 0.00 99 1008.7
20260509082518 67 138 0.0 2.0 0.00 0.01 0.00 99 1008.7
20260509082020 67 138 0.0 2.0 0.00 0.01 0.00 99 1008.9
20260509081518 67 138 0.0 2.0 0.00 0.01 0.00 99 1008.8
20260509081016 67 138 0.0 1.0 0.00 0.01 0.00 99 1008.9
20260509080516 67 138 0.0 1.0 0.00 0.01 0.00 99 1009.0
20260509080017 67 138 0.0 0.0 0.00 0.01 0.00 99 1009.0
20260509075516 67 138 0.0 1.0 0.00 0.01 0.00 99 1009.1
20260509075019 67 138 1.0 2.0 0.00 0.01 0.00 99 1009.2
20260509074517 67 138 0.0 2.0 0.00 0.01 0.00 99 1009.2
20260509074015 67 138 1.0 2.0 0.00 0.01 0.00 99 1009.3
20260509073519 67 138 0.0 1.0 0.00 0.01 0.00 99 1009.3
20260509073025 67 139 0.0 2.0 0.00 0.01 0.00 99 1009.3
20260509072518 67 139 0.0 2.0 0.00 0.01 0.00 99 1009.4
20260509072018 67 139 1.0 2.0 0.00 0.01 0.00 99 1009.4
20260509071514 67 139 0.0 2.0 0.00 0.01 0.00 99 1009.1
20260509071014 67 139 0.0 2.0 0.00 0.01 0.00 99 1009.0
20260509070514 67 139 0.0 2.0 0.00 0.01 0.00 99 1009.0
20260509070014 67 139 0.0 4.0 0.00 0.01 0.00 99 1008.9
20260509065512 67 139 1.0 4.0 0.00 0.01 0.00 99 1009.0
20260509065011 66 155 1.0 3.0 0.00 0.01 0.00 99 1009.1
20260509064511 66 131 1.0 3.0 0.00 0.01 0.00 98 1009.2
20260509064015 66 144 1.0 1.0 0.00 0.01 0.00 98 1009.2
20260509063509 66 144 0.0 1.0 0.00 0.01 0.00 98 1009.2
20260509063013 66 144 0.0 2.0 0.00 0.01 0.00 98 1009.2
20260509062510 66 144 0.0 3.0 0.00 0.01 0.00 98 1009.2
20260509062010 66 144 1.0 3.0 0.00 0.01 0.00 98 1009.2
20260509061509 66 142 1.0 3.0 0.00 0.01 0.00 98 1009.3
20260509061010 66 149 1.0 2.0 0.00 0.01 0.00 98 1009.1
20260509060508 66 144 1.0 2.0 0.00 0.01 0.00 98 1009.2
20260509060017 66 171 1.0 3.0 0.00 0.01 0.00 98 1009.2
20260509055511 66 163 1.0 4.0 0.00 0.01 0.00 98 1009.3
20260509055006 66 180 1.0 4.0 0.00 0.01 0.00 98 1009.5
20260509054507 66 180 2.0 4.0 0.00 0.01 0.00 98 1009.4
20260509054005 66 180 1.0 3.0 0.00 0.01 0.00 98 1009.5
20260509053506 66 223 1.0 3.0 0.00 0.01 0.00 98 1009.7
20260509053005 66 281 1.0 3.0 0.00 0.01 0.00 98 1009.7
20260509052504 66 215 1.0 4.0 0.00 0.01 0.00 98 1009.8
20260509052004 66 190 2.0 6.0 0.00 0.01 0.00 98 1009.6
20260509051505 66 175 2.0 6.0 0.00 0.01 0.00 98 1009.6
20260509051004 66 201 2.0 6.0 0.00 0.01 0.00 98 1009.7
20260509050503 66 180 3.0 7.0 0.00 0.01 0.00 98 1009.7
20260509050003 66 163 3.0 7.0 0.00 0.01 0.00 98 1009.6
20260509045501 66 210 4.0 8.0 0.00 0.01 0.01 98 1009.7
20260509045001 66 194 4.0 9.0 0.00 0.01 0.01 98 1009.7
20260509044502 66 205 5.0 9.0 0.00 0.01 0.01 98 1009.8
20260509044101 66 221 5.0 8.0 0.00 0.01 0.01 98 1009.8
20260509043600 66 204 5.0 8.0 0.00 0.01 0.01 98 1009.7
20260509043100 66 202 5.0 8.0 0.00 0.01 0.01 97 1009.8
20260509042603 66 196 4.0 6.0 0.00 0.01 0.01 97 1009.7
20260509042100 66 213 2.0 5.0 0.00 0.01 0.01 97 1009.7
20260509041600 66 192 2.0 7.0 0.00 0.01 0.01 97 1009.8
20260509041100 66 188 3.0 7.0 0.00 0.01 0.01 97 1009.6
20260509041005 66 217 3.0 7.0 0.00 0.01 0.01 97 1009.6
20260509040559 67 207 3.0 9.0 0.00 0.01 0.01 97 1009.5
20260509040127 67 186 6.0 10.0 0.00 0.01 0.01 97 1009.3
20260509035559 67 182 6.0 10.0 0.00 0.01 0.01 97 1009.4
20260509035059 67 178 4.0 8.0 0.00 0.01 0.01 97 1009.4
20260509034602 66 148 3.0 7.0 0.00 0.01 0.01 97 1009.1
20260509034058 66 146 3.0 5.0 0.00 0.01 0.01 97 1008.8
20260509033558 66 159 4.0 6.0 0.00 0.01 0.01 97 1008.8
20260509033058 66 113 2.0 6.0 0.00 0.01 0.01 97 1008.6
20260509032559 67 100 3.0 6.0 0.00 0.01 0.01 97 1008.5
20260509032057 67 113 3.0 7.0 0.00 0.01 0.01 97 1008.4
20260509031600 67 127 3.0 7.0 0.00 0.01 0.01 97 1008.5
20260509031057 66 123 3.0 4.0 0.00 0.01 0.01 96 1008.5
20260509030557 67 93 2.0 4.0 0.00 0.01 0.01 96 1008.4
20260509030059 66 117 2.0 4.0 0.00 0.01 0.01 96 1008.4
20260509025556 66 117 2.0 4.0 0.00 0.01 0.01 96 1008.3
20260509025056 66 96 2.0 6.0 0.00 0.01 0.01 95 1008.3
20260509024558 67 106 2.0 6.0 0.00 0.01 0.01 96 1008.4
20260509024056 67 126 4.0 6.0 0.00 0.01 0.01 96 1008.2
20260509023559 67 146 2.0 6.0 0.00 0.01 0.01 96 1008.2
20260509023055 67 142 3.0 6.0 0.00 0.01 0.01 96 1008.1
20260509022559 67 136 3.0 4.0 0.00 0.01 0.01 95 1008.1
20260509022055 67 118 1.0 3.0 0.00 0.01 0.01 95 1008.1
20260509021556 67 117 2.0 3.0 0.00 0.01 0.01 95 1008.1
20260509021057 67 117 1.0 2.0 0.00 0.01 0.01 94 1008.1
20260509020554 67 111 1.0 3.0 0.00 0.01 0.01 94 1008.1
20260509020055 67 111 2.0 3.0 0.00 0.01 0.01 94 1008.2
20260509015556 68 44 1.0 2.0 0.00 0.01 0.01 93 1008.2
20260509015054 68 44 0.0 3.0 0.00 0.01 0.01 92 1008.2
20260509014554 68 163 0.0 4.0 0.00 0.01 0.01 92 1008.2
20260509014053 68 163 2.0 6.0 0.00 0.01 0.01 92 1007.9
20260509013554 69 165 3.0 6.0 0.00 0.01 0.01 92 1007.8
20260509013055 69 147 2.0 4.0 0.00 0.01 0.01 91 1007.9
20260509012553 69 159 3.0 6.0 0.00 0.01 0.01 90 1007.8
20260509012053 70 190 3.0 6.0 0.00 0.01 0.01 90 1007.6
20260509011559 70 178 3.0 5.0 0.00 0.01 0.01 90 1007.6
20260509011053 70 192 3.0 6.0 0.00 0.01 0.01 89 1007.5
20260509010552 71 200 3.0 6.0 0.00 0.01 0.01 89 1007.4
20260509010052 71 178 3.0 6.0 0.00 0.01 0.01 89 1007.3
20260509005552 71 156 3.0 6.0 0.00 0.01 0.01 88 1007.4
20260509005053 72 177 4.0 8.0 0.00 0.01 0.01 88 1007.5
20260509004607 72 193 4.0 8.0 0.00 0.01 0.01 87 1007.5
20260509004051 72 201 4.0 7.0 0.00 0.01 0.01 87 1007.5
20260509003551 73 218 3.0 9.0 0.00 0.01 0.01 87 1007.5
20260509003051 73 186 5.0 11.0 0.00 0.01 0.01 85 1007.5
20260509002554 73 213 7.0 11.0 0.00 0.01 0.01 85 1007.3
20260509002050 74 195 3.0 9.0 0.00 0.01 0.01 86 1007.2
20260509001551 74 170 5.0 10.0 0.00 0.01 0.01 86 1007.2
20260509001050 73 173 7.0 10.0 0.00 0.01 0.01 86 1007.2
20260509000549 74 126 5.0 9.0 0.00 0.01 0.01 85 1007.2
20260509000049 74 134 5.0 9.0 0.00 0.01 0.01 85 1007.2
20260508235551 74 150 5.0 9.0 0.00 0.01 0.01 85 1007.3
20260508235047 74 166 4.0 9.0 0.00 0.01 0.01 86 1007.3
20260508234547 74 134 6.0 9.0 0.00 0.01 0.01 85 1007.4
20260508234048 74 109 6.0 10.0 0.00 0.01 0.01 87 1007.5
20260508233546 74 171 6.0 10.0 0.00 0.01 0.01 87 1007.6
20260508233046 73 173 3.0 7.0 0.00 0.01 0.01 87 1007.6
20260508232549 73 180 3.0 8.0 0.00 0.01 0.01 87 1007.6
20260508232044 73 178 5.0 8.0 0.00 0.01 0.01 86 1007.6
20260508231545 73 169 4.0 9.0 0.00 0.01 0.01 87 1007.5
20260508231045 73 199 4.0 7.0 0.00 0.01 0.01 86 1007.6
20260508230543 73 179 2.0 9.0 0.00 0.01 0.01 87 1007.7
20260508230044 73 189 5.0 8.0 0.00 0.01 0.01 87 1007.7
20260508225544 73 167 4.0 10.0 0.00 0.01 0.01 88 1007.6
20260508225044 73 222 6.0 11.0 0.00 0.01 0.01 87 1007.6
20260508224545 73 180 5.0 11.0 0.00 0.01 0.01 87 1007.7
20260508224043 73 192 6.0 11.0 0.00 0.01 0.01 87 1007.7
20260508223543 73 180 7.0 14.0 0.00 0.01 0.01 87 1007.7
20260508223048 73 205 7.0 14.0 0.00 0.01 0.01 86 1007.7
20260508222542 74 194 4.0 14.0 0.00 0.01 0.01 86 1007.8
20260508222043 74 176 8.0 13.0 0.00 0.01 0.01 85 1007.8
20260508221542 74 186 8.0 12.0 0.00 0.01 0.01 85 1007.8
20260508221043 74 160 6.0 12.0 0.00 0.01 0.01 87 1007.8
20260508220539 74 169 9.0 11.0 0.00 0.01 0.01 86 1007.9
20260508220039 73 206 7.0 11.0 0.00 0.01 0.01 87 1007.9
20260508215538 73 215 7.0 10.0 0.00 0.01 0.01 87 1008.0
20260508215038 73 220 5.0 8.0 0.00 0.01 0.01 87 1008.0